Regional Weather Roundup
Issued by NWS

Home | Current Version | Previous Version | Text Only | Print | Product List | Glossary Off
Versions: 1 2 3 4 5 6 7 8 9 10 11 12 13 14 15 16 17 18 19 20 21 22 23 24 25 26 27 28 29 30 31 32 33 34 35 36 37 38 39 40 41 42 43 44 45 46 47 48 49 50

000
ASUS44 KMEG 301710
RWRTN
TENNESSEE HOURLY STATE WEATHER ROUNDUP
NATIONAL WEATHER SERVICE MEMPHIS TN
1200 PM CDT THU OCT 30 2014

TNZ002-004-019-021-049-052-054-088>092-301800-
WEST TENNESSEE

CITY           SKY/WX    TMP DP  RH WIND       PRES   REMARKS
MEMPHIS INTL   SUNNY     64  39  39 CALM      30.15F
NWS MEMPHIS      N/A     62 N/A N/A MISG        N/A
JACKSON        SUNNY     61  36  39 CALM      30.15F
DYERSBURG      SUNNY     61  34  36 E5        30.16F
UNION CITY     SUNNY     55  39  54 VRB3      30.14F
PARIS          SUNNY     55  37  50 VRB5      30.16F
HUNTINGDON     SUNNY     56  37  48 E5        30.15F
SAVANNAH       SUNNY     61  39  44 VRB5      30.15F
$$

TNZ008-025-027-028-033-062-065-066-301800-
NORTH MIDDLE TENNESSEE

CITY           SKY/WX    TMP DP  RH WIND       PRES   REMARKS
NASHVILLE      SUNNY     58  38  47 E5        30.15F
DICKSON        SUNNY     55  36  47 VRB3      30.14F
PORTLAND       SUNNY     52  36  54 CALM      30.14F
CLARKSVILLE    SUNNY     57  39  51 VRB3      30.16F
LEBANON        SUNNY     55  37  50 N5        30.14F
SMYRNA         SUNNY     58  39  49 CALM      30.15F
MURFREESBORO   SUNNY     57  40  53 SE3       30.14F
COOKEVILLE     SUNNY     57  41  54 VRB3      30.11F
GALLATIN       SUNNY     56  41  57 S5        30.15F
CROSSVILLE     SUNNY     55  34  45 VRB5      30.11F
ROCKWOOD       SUNNY     53  34  48 VRB6      30.10F
$$

TNZ061-075-076-078-094-096-097-301800-
SOUTH MIDDLE TENNESSEE

CITY           SKY/WX    TMP DP  RH WIND       PRES   REMARKS
FAYETTEVILLE   SUNNY     55  37  50 N18       30.12F
TULLAHOMA      SUNNY     55  36  47 VRB7      30.13F
WINCHESTER     SUNNY     55  39  54 VRB6      30.12F
MCMINNVILLE    SUNNY     55  41  58 NE5       30.12F
COLUMBIA       SUNNY     57  39  51 S3        30.13F
SHELBYVILLE    SUNNY     57  39  51 N7        30.14F
$$

TNZ017-018-042-046-047-301800-
NORTHEAST TENNESSEE

CITY           SKY/WX    TMP DP  RH WIND       PRES   REMARKS
TRI CITIES     MOSUNNY   54  41  61 VRB5      30.10F
ELIZABETHTON   SUNNY     54  39  58 SW8       30.09F
$$

TNZ012-013-036-069-073-074-301800-
CENTRAL EAST TENNESSEE

CITY           SKY/WX    TMP DP  RH WIND       PRES   REMARKS
KNOXVILLE      MOSUNNY   58  41  53 CALM      30.09F
OAK RIDGE      SUNNY     59  39  47 VRB3      30.11F
GATLINBURG     SUNNY     55  39  54 VRB3      30.09F
MORRISTOWN     SUNNY     55  43  62 VRB3      30.10F
$$

TNZ083-085-099-301800-
SOUTHEAST TENNESSEE

CITY           SKY/WX    TMP DP  RH WIND       PRES   REMARKS
CHATTANOOGA    SUNNY     60  37  42 CALM      30.10F
$$

SKY/WX REPORTED AS FAIR MEANS FEW OR NO CLOUDS BELOW
12 THOUSAND FEET.




USA.gov is the U.S. government's official web portal to all federal, state and local government web resources and services.